Location: Bergnershof
(48.9468°N, 10.9431°E)
Time: 01:43:57
(UTC+00:00)

Cosmos 1470 Rocket - Pass Details

Date: 03 March 2021
Orbit: 603 x 634 km, 82.5° (Epoch: 16 April)

Event Time Altitude Azimuth Distance (km) Brightness Sun altitude
Rises 18:35:45 0° 198° (SSW) 2,918 7.1 -16.0°
Reaches altitude 10° 18:38:01 10° 203° (SSW) 2,013 6.3 -16.4°
Maximum altitude 18:42:25 59° 282° (WNW) 736 4.2 -17.1°
Drops below altitude 10° 18:46:50 10° 3° (N) 2,015 6.3 -17.8°
Sets 18:49:06 0° 7° (N) 2,922 7.1 -18.2°
